User: anonymous   Login
Location: Unspecified
(0.0000°N, 0.0000°E)
Time: 07:17:37
(UTC+00:00)
Language:

NOSS 2-3 (E) - Orbit

View from above orbital plane
View from above orbital plane
View from above satellite
View from above satellite

Ground track
Ground track

The orbit data is extracted from the following two-line orbital elements,

1 23936U 96029E   17078.82800096 0.00000030  00000-0  19031-4 0    09
2 23936  63.3740 283.0481 0593000  12.1849 347.8151 13.40866023    08
Epoch (UTC): 19 March 2017 19:52:19
Eccentricity: 0.0593000
inclination: 63.3740°
perigee height: 662 km
apogee height: 1550 km
right ascension of ascending node: 283.0481°
argument of perigee: 12.1849°
revolutions per day: 13.40866023
mean anomaly at epoch: 347.8151°
orbit number at epoch: 0

The dashed part of the orbit path shows where the satellite is in the earth's shadow,  

DLR